Starlink 1221

operational
NORAD ID: 45227 Int'l Des: 2020-012 Owner: SPXS Country: US Constellation: starlink
LEOCIRCULAR

关于 Starlink 1221

正在加载描述...

实时位置

正在加载3D地球...

即将过境

高度历史

Altitude vs Time

uPlot chart will show altitude changes over time

两行轨道根数

1 45227U 20012BB 26035.32213327 .00016883 00000-0 41728-3 0 9995
2 45227 53.0662 67.5744 0001737 289.5476 70.5340 15.40615836331562
Epoch: Feb 4, 2026 • Age: 7 hours

当前状态

高度 451.9 km
速度 7.65 km/s
星下点 53.19°N, 163.64°E
发射日期 Feb 17, 2020
运行时间 5.9 years
类型 internet

技术详情

分类 Payload
质量 260.00 kg
干质量 248.00 kg
总质量 260.00 kg
长度 0.20 m
直径 2.80 m
跨度 9.00 m
形状 Box + pan
制造商 SPXS
平台类型 Starlink
阶段状态 In Orbit
所有者/国家 SPXS/US

大型星座

Loading constellations...